DLH802 EDDF-ESSA

Flight info

Callsign DLH802
Flight time N/A
Altitude 37000
Route MARUN2D/07C MARUN Y150 TOLGI DCT ALASA DCT DETSO N873 ARS T317 ELTOK
Aircraft A339/H-SADE1E2E3GHIJ3J5M1P2RWXY/LB2D1

Departure

Time 2026-04-14 16:22
Airport Frankfurt Main Airport (EDDF)

Arrival

Time N/A
Airport Stockholm-Arlanda Airport (ESSA)
Time Latitude Longitude Altitude Speed Heading
2026-04-14 15:31 50.04545 8.56739 368 ft 0 kts 295°
2026-04-14 16:09 50.04540 8.56756 368 ft 2 kts 295°
2026-04-14 16:10 50.04533 8.56778 368 ft 2 kts 295°
2026-04-14 16:10 50.04527 8.56799 368 ft 2 kts 295°
2026-04-14 16:10 50.04523 8.56812 369 ft 2 kts 293°
2026-04-14 16:10 50.04520 8.56835 369 ft 2 kts 265°
2026-04-14 16:11 50.04524 8.56859 369 ft 2 kts 242°
2026-04-14 16:11 50.04533 8.56877 369 ft 2 kts 220°
2026-04-14 16:11 50.04545 8.56889 369 ft 1 kts 198°
2026-04-14 16:11 50.04551 8.56892 369 ft 1 kts 193°
2026-04-14 16:12 50.04552 8.56892 369 ft 0 kts 193°
2026-04-14 16:14 50.04551 8.56892 369 ft 0 kts 193°
2026-04-14 16:14 50.04537 8.56887 369 ft 2 kts 193°
2026-04-14 16:14 50.04511 8.56878 369 ft 0 kts 193°
2026-04-14 16:15 50.04501 8.56874 369 ft 3 kts 193°
2026-04-14 16:15 50.04467 8.56863 368 ft 6 kts 192°
2026-04-14 16:15 50.04416 8.56848 368 ft 8 kts 191°
2026-04-14 16:15 50.04350 8.56830 368 ft 10 kts 191°
2026-04-14 16:16 50.04272 8.56798 367 ft 12 kts 205°
2026-04-14 16:16 50.04236 8.56710 366 ft 7 kts 250°
2026-04-14 16:16 50.04215 8.56622 366 ft 9 kts 249°
2026-04-14 16:16 50.04184 8.56514 365 ft 11 kts 246°
2026-04-14 16:17 50.04149 8.56382 364 ft 14 kts 249°
2026-04-14 16:17 50.04114 8.56232 363 ft 15 kts 251°
2026-04-14 16:17 50.04076 8.56068 362 ft 16 kts 250°
2026-04-14 16:17 50.04036 8.55897 361 ft 16 kts 250°
2026-04-14 16:18 50.03997 8.55724 360 ft 17 kts 251°
2026-04-14 16:18 50.03952 8.55545 359 ft 17 kts 247°
2026-04-14 16:18 50.03907 8.55362 359 ft 18 kts 250°
2026-04-14 16:18 50.03863 8.55179 357 ft 18 kts 251°
2026-04-14 16:19 50.03820 8.54994 357 ft 18 kts 250°
2026-04-14 16:19 50.03772 8.54804 355 ft 19 kts 249°
2026-04-14 16:19 50.03727 8.54614 354 ft 13 kts 250°
2026-04-14 16:19 50.03692 8.54466 353 ft 15 kts 250°
2026-04-14 16:20 50.03651 8.54342 353 ft 11 kts 218°
2026-04-14 16:20 50.03573 8.54338 352 ft 12 kts 159°
2026-04-14 16:20 50.03507 8.54388 351 ft 5 kts 143°
2026-04-14 16:20 50.03498 8.54436 351 ft 4 kts 84°
2026-04-14 16:21 50.03499 8.54440 351 ft 0 kts 70°
2026-04-14 16:21 50.03500 8.54442 351 ft 1 kts 70°
2026-04-14 16:21 50.03549 8.54650 353 ft 51 kts 69°
2026-04-14 16:22 50.03751 8.55496 358 ft 112 kts 70°
2026-04-14 16:22 50.04091 8.56900 375 ft 161 kts 70°
2026-04-14 16:22 50.04468 8.58545 887 ft 163 kts 70°
2026-04-14 16:22 50.04842 8.60177 1542 ft 159 kts 69°
2026-04-14 16:23 50.05219 8.61840 1932 ft 170 kts 69°
2026-04-14 16:23 50.05628 8.63651 2246 ft 186 kts 70°
2026-04-14 16:23 50.06075 8.65643 2559 ft 203 kts 69°
2026-04-14 16:23 50.06558 8.67793 2924 ft 220 kts 70°
2026-04-14 16:24 50.07110 8.70024 3542 ft 224 kts 58°
2026-04-14 16:24 50.08201 8.71722 4201 ft 226 kts 28°
2026-04-14 16:24 50.09679 8.72757 4614 ft 242 kts 23°
2026-04-14 16:24 50.11275 8.73802 4941 ft 254 kts 23°
2026-04-14 16:25 50.12922 8.74888 4997 ft 255 kts 23°
2026-04-14 16:25 50.14551 8.75974 4998 ft 255 kts 24°
2026-04-14 16:25 50.16175 8.77066 4998 ft 254 kts 24°
2026-04-14 16:25 50.17798 8.78162 4996 ft 254 kts 24°
2026-04-14 16:26 50.19443 8.79275 4994 ft 254 kts 24°
2026-04-14 16:26 50.21067 8.80379 4993 ft 255 kts 24°
2026-04-14 16:26 50.22685 8.81479 4994 ft 255 kts 24°
2026-04-14 16:26 50.24323 8.82592 5023 ft 257 kts 24°
2026-04-14 16:27 50.25985 8.83720 5505 ft 263 kts 23°
2026-04-14 16:27 50.27709 8.84510 6384 ft 262 kts
2026-04-14 16:27 50.29526 8.84502 7170 ft 264 kts 354°
2026-04-14 16:27 50.31345 8.84138 7853 ft 269 kts 352°
2026-04-14 16:28 50.33196 8.83725 8527 ft 274 kts 352°
2026-04-14 16:28 50.35088 8.83303 9200 ft 279 kts 351°
2026-04-14 16:28 50.37034 8.82876 9867 ft 284 kts 351°
2026-04-14 16:28 50.38985 8.82452 10520 ft 289 kts 351°
2026-04-14 16:29 50.41011 8.82015 11083 ft 298 kts 351°
2026-04-14 16:29 50.43066 8.81573 11771 ft 301 kts 351°
2026-04-14 16:29 50.45143 8.81129 12500 ft 303 kts 351°
2026-04-14 16:29 50.47258 8.80678 13204 ft 306 kts 351°
2026-04-14 16:30 50.49363 8.80227 13907 ft 309 kts 352°
2026-04-14 16:30 50.51483 8.79775 14626 ft 311 kts 352°
2026-04-14 16:30 50.53630 8.79316 15315 ft 314 kts 352°
2026-04-14 16:30 50.55786 8.78838 16002 ft 316 kts 350°
2026-04-14 16:31 50.57931 8.78162 16668 ft 319 kts 346°
2026-04-14 16:31 50.60099 8.77243 17343 ft 322 kts 343°
2026-04-14 16:31 50.62245 8.76270 17999 ft 325 kts 343°
2026-04-14 16:31 50.64433 8.75268 18674 ft 328 kts 343°
2026-04-14 16:32 50.66642 8.74259 19341 ft 331 kts 343°
2026-04-14 16:32 50.68879 8.73237 19988 ft 334 kts 343°
2026-04-14 16:32 50.71144 8.72203 20610 ft 337 kts 343°
2026-04-14 16:32 50.73378 8.71182 21207 ft 340 kts 343°
2026-04-14 16:33 50.75677 8.70130 21801 ft 343 kts 343°
2026-04-14 16:33 50.77962 8.69098 22382 ft 345 kts 346°
2026-04-14 16:33 50.80365 8.68801 22904 ft 351 kts
2026-04-14 16:33 50.82687 8.69916 23433 ft 358 kts 26°
2026-04-14 16:34 50.84667 8.72335 23937 ft 365 kts 47°
2026-04-14 16:34 50.86218 8.75497 24453 ft 369 kts 51°
2026-04-14 16:34 50.87763 8.78787 24968 ft 372 kts 51°
2026-04-14 16:34 50.89309 8.82072 25460 ft 374 kts 51°
2026-04-14 16:35 50.90866 8.85355 25942 ft 377 kts 50°
2026-04-14 16:35 50.92445 8.88669 26412 ft 379 kts 50°
2026-04-14 16:35 50.94054 8.92043 26884 ft 381 kts 50°
2026-04-14 16:35 50.95651 8.95393 27334 ft 383 kts 50°
2026-04-14 16:36 50.97270 8.98789 27781 ft 386 kts 50°
2026-04-14 16:36 50.98884 9.02180 28198 ft 388 kts 50°
2026-04-14 16:36 51.00554 9.05697 28629 ft 391 kts 50°
2026-04-14 16:36 51.02193 9.09155 29046 ft 393 kts 50°
2026-04-14 16:37 51.03862 9.12684 29456 ft 395 kts 50°
2026-04-14 16:37 51.05523 9.16199 29863 ft 397 kts 50°
2026-04-14 16:37 51.07169 9.19685 30234 ft 399 kts 49°
2026-04-14 16:37 51.08978 9.23001 30592 ft 398 kts 41°
2026-04-14 16:38 51.11108 9.25833 30915 ft 397 kts 32°
2026-04-14 16:38 51.13462 9.28078 31263 ft 395 kts 23°
2026-04-14 16:38 51.16005 9.29720 31591 ft 394 kts 14°
2026-04-14 16:38 51.18658 9.30798 31918 ft 394 kts 10°
2026-04-14 16:39 51.21326 9.31718 32241 ft 395 kts
2026-04-14 16:39 51.24020 9.32624 32557 ft 397 kts
2026-04-14 16:39 51.26682 9.33529 32874 ft 398 kts
2026-04-14 16:39 51.29383 9.34455 33182 ft 399 kts
2026-04-14 16:40 51.32092 9.35390 33461 ft 401 kts
2026-04-14 16:40 51.34843 9.36343 33748 ft 403 kts
2026-04-14 16:40 51.37573 9.37292 34027 ft 404 kts
2026-04-14 16:40 51.40289 9.38238 34283 ft 406 kts
2026-04-14 16:41 51.43050 9.39201 34526 ft 407 kts
2026-04-14 16:41 51.45816 9.40169 34747 ft 409 kts
2026-04-14 16:41 51.48599 9.41143 34941 ft 411 kts
2026-04-14 16:41 51.51394 9.42121 35141 ft 413 kts
2026-04-14 16:42 51.54210 9.43109 35325 ft 415 kts
2026-04-14 16:42 51.57003 9.44091 35459 ft 418 kts
2026-04-14 16:42 51.59848 9.45093 35599 ft 420 kts
2026-04-14 16:42 51.62691 9.46094 35751 ft 422 kts
2026-04-14 16:43 51.65552 9.47104 35912 ft 424 kts
2026-04-14 16:43 51.68428 9.48121 36093 ft 426 kts
2026-04-14 16:43 51.71357 9.49160 36280 ft 428 kts
2026-04-14 16:43 51.74262 9.50189 36445 ft 431 kts
2026-04-14 16:44 51.77193 9.51231 36623 ft 433 kts
2026-04-14 16:44 51.80096 9.52246 36813 ft 435 kts
2026-04-14 16:44 51.83103 9.53092 36990 ft 436 kts
2026-04-14 16:45 51.89104 9.54124 37191 ft 439 kts
2026-04-14 16:45 51.92144 9.54532 37200 ft 439 kts
2026-04-14 16:45 51.98193 9.55331 37206 ft 439 kts
2026-04-14 16:46 52.04290 9.56149 37208 ft 439 kts
2026-04-14 16:46 52.10340 9.56968 37209 ft 439 kts
2026-04-14 16:47 52.16445 9.57795 37207 ft 440 kts
2026-04-14 16:47 52.24925 9.58950 37202 ft 440 kts
2026-04-14 16:48 52.36109 9.60488 37209 ft 440 kts
2026-04-14 16:48 52.47375 9.62042 37208 ft 441 kts
2026-04-14 16:49 52.58794 9.63624 37207 ft 441 kts
2026-04-14 16:49 52.69963 9.65180 37203 ft 442 kts
2026-04-14 16:50 52.81280 9.66764 37210 ft 442 kts
2026-04-14 16:50 52.92738 9.68374 37211 ft 442 kts
2026-04-14 16:51 53.04248 9.70002 37205 ft 443 kts
2026-04-14 16:51 53.15739 9.71636 37208 ft 444 kts
2026-04-14 16:52 53.27164 9.73272 37197 ft 444 kts
2026-04-14 16:52 53.38541 9.74905 37215 ft 444 kts
2026-04-14 16:53 53.49829 9.76536 37207 ft 445 kts
2026-04-14 16:53 53.61195 9.78187 37203 ft 446 kts
2026-04-14 16:54 53.72747 9.79874 37207 ft 448 kts
2026-04-14 16:54 53.84459 9.81595 37205 ft 448 kts
2026-04-14 16:55 53.95932 9.83289 37206 ft 449 kts
2026-04-14 16:55 54.06827 9.84909 37262 ft 448 kts
2026-04-14 16:56 54.13022 9.85831 37217 ft 448 kts
2026-04-14 16:56 54.19210 9.87766 37199 ft 456 kts 16°
2026-04-14 16:57 54.24897 9.92680 37198 ft 463 kts 27°
2026-04-14 16:57 54.30435 9.98462 37198 ft 463 kts 28°
2026-04-14 16:58 54.35978 10.04267 37199 ft 464 kts 27°
2026-04-14 16:58 54.41624 10.10155 37201 ft 464 kts 27°
2026-04-14 16:59 54.47274 10.16052 37200 ft 465 kts 27°
2026-04-14 16:59 54.52836 10.21870 37195 ft 465 kts 27°
2026-04-14 17:00 54.58438 10.27747 37194 ft 466 kts 27°
2026-04-14 17:00 54.64050 10.33654 37192 ft 467 kts 27°
2026-04-14 17:01 54.69608 10.39524 37177 ft 467 kts 27°
2026-04-14 17:01 54.75147 10.45391 37178 ft 467 kts 28°
2026-04-14 17:02 54.80695 10.51287 37177 ft 468 kts 28°
2026-04-14 17:02 54.86253 10.57214 37174 ft 469 kts 28°
2026-04-14 17:03 54.91796 10.63141 37166 ft 469 kts 28°
2026-04-14 17:03 54.97380 10.69134 37172 ft 470 kts 28°
2026-04-14 17:04 55.02918 10.75097 37160 ft 470 kts 29°
2026-04-14 17:04 55.08450 10.81071 37163 ft 470 kts 29°
2026-04-14 17:05 55.14027 10.87119 37155 ft 471 kts 29°
2026-04-14 17:05 55.19600 10.93178 37149 ft 472 kts 29°
2026-04-14 17:06 55.25166 10.99251 37154 ft 473 kts 29°
2026-04-14 17:06 55.30741 11.05358 37152 ft 473 kts 29°
2026-04-14 17:07 55.36317 11.11483 37139 ft 474 kts 29°
2026-04-14 17:07 55.41899 11.17634 37155 ft 473 kts 29°
2026-04-14 17:08 55.47442 11.23765 37150 ft 474 kts 29°
2026-04-14 17:08 55.52995 11.29928 37149 ft 474 kts 29°
2026-04-14 17:09 55.58578 11.36140 37145 ft 475 kts 30°
2026-04-14 17:09 55.64291 11.42527 37155 ft 476 kts 30°
2026-04-14 17:10 55.69982 11.48905 37148 ft 476 kts 30°
2026-04-14 17:10 55.75698 11.55338 37145 ft 476 kts 30°
2026-04-14 17:11 55.81435 11.61816 37138 ft 477 kts 30°